Hourly Data Report for October 01, 2016

All times are specified in Local Standard Time (LST). Add 1 hour to adjust for Daylight Saving Time where and when it is observed.

KITCHENER/WATERLOO
ONTARIO

43°27'39.000" N
80°22'43.000" W
321.60 m
6144239
71368
YKF

Download Data

Hourly Data (October 2016)
Hourly Data Report for October 1, 2016
Temp Definition
°C
Dew Point Temp Definition
°C
Rel Hum Definition
%
Wind Dir Definition
10's deg

Wind Spd Definition
km/h
Visibility Definition
km
Stn Press Definition
kPa
Hmdx Definition


Wind Chill Definition


Weather Definition


TIME
00:00 Legend Double Dagger 12.1 10.5 90 8 24 16.1 98.40     LegendNANA
01:00 Legend Double Dagger 12.2 10.3 88 9 24 16.1 98.38     LegendNANA
02:00 Legend Double Dagger 12.0 10.3 89 8 22 16.1 98.33     LegendNANA
03:00 Legend Double Dagger 12.2 10.6 90 9 26 16.1 98.31     Rain
04:00 Legend Double Dagger 12.0 10.9 93 9 15 14.5 98.31     Rain
05:00 Legend Double Dagger 11.8 10.9 94 7 21 6.4 98.28     Moderate Rain,Fog
06:00 Legend Double Dagger 11.8 11.0 95 7 13 4.8 98.30     Rain,Fog
07:00 Legend Double Dagger 11.7 10.9 95 9 17 16.1 98.31     Rain
08:00 Legend Double Dagger 11.9 11.1 95 8 17 16.1 98.29     LegendNANA
09:00 Legend Double Dagger 12.1 11.3 95 9 15 12.9 98.31     LegendNANA
10:00 Legend Double Dagger 12.8 11.9 94 8 18 9.7 98.25     Fog
11:00 Legend Double Dagger 13.3 12.4 94 7 21 9.7 98.19     Fog
12:00 Legend Double Dagger 13.9 12.6 92 8 15 12.9 98.18     LegendNANA
13:00 Legend Double Dagger 14.0 12.7 92 10 18 16.1 98.12     LegendNANA
14:00 Legend Double Dagger 13.9 12.6 92 7 21 16.1 98.08     LegendNANA
15:00 Legend Double Dagger 13.5 12.6 94 7 13 16.1 98.07     LegendNANA
16:00 Legend Double Dagger 13.6 12.8 95 7 17 12.9 98.06     LegendNANA
17:00 Legend Double Dagger 13.7 12.9 95 8 17 16.1 98.01     LegendNANA
18:00 Legend Double Dagger 13.5 12.7 95 10 13 16.1 97.99     LegendNANA
19:00 Legend Double Dagger 13.4 12.9 97 8 9 1.2 98.00     Fog
20:00 Legend Double Dagger 13.6 13.1 97 9 11 0.8 98.02     Fog
21:00 Legend Double Dagger 13.7 13.2 97 8 8 3.2 97.98     Rain,Fog
22:00 Legend Double Dagger 13.9 13.4 97 7 5 4.0 97.94     Rain,Fog
23:00 Legend Double Dagger 14.1 13.6 97 9 11 4.8 97.91     Fog

Notes on Data Quality.

Legend

  • E = Estimated
  • M = Missing
  • NA = Not Available
  • ‡ = Partner data that is not subject to review by the National Climate Archives
Date modified: